Flag for U.S.A. Weather past 2 weeks in Arden-Arcade, California, U.S.A.

Now
48 °F

Overcast.


Feels Like: 47 °F
Forecast: 48 / 56 °F
Wind: 3 mph from East

Location: Mather Field

Current Time: Dec 18, 2014 at 4:44:33 AM

Latest Report: Dec 18, 2014 at 3:55 AM


Visibility: 10 mi

Pressure: 30.11 "Hg

Humidity: 100%

Dew point: 48 °F

Location of Arden-ArcadeLocation

Historic Weather in Arden-Arcade — Graph

°F

Arden-Arcade temperature yesterday

Maximum temperature yesterday: 55 °F (at 1:50 PM)
Minimum temperature yesterday: 46 °F (at 2:46 AM)
Average temperature yesterday: 51 °F

Past Weeks' High & Low Weather Summary

 TemperatureHumidityPressure
High68 °F (Dec 4, 12:45 PM)100% (Dec 3, 3:46 AM)30.24 "Hg (Dec 3, 3:46 AM)
Low41 °F (Dec 14, 4:48 AM)59% (Dec 8, 1:45 PM)29.55 "Hg (Dec 11, 6:45 AM)
Average54 °F95%30.00 "Hg
* Reported Dec 3 3:46 AM — Dec 18 3:55 AM, Arden-Arcade, Weather by CustomWeather, © 2014

Note: Actual official high and low records may vary slightly from our data, if they occured in-between our weather recording intervals... More about our weather records

Advertising

Arden-Arcade weather history for previous 24 hours

 ConditionsComfort  
Time TempWeatherWind HumidityBarometerVisibility
3:55 AM
Dec 18
48 °FOvercast.3 mph100%30.11 "Hg10 mi
11:30 PM
Dec 17
50 °FOvercast.6 mph100%30.12 "Hg10 mi
10:55 PM50 °FMostly cloudy.6 mph100%30.11 "Hg10 mi
9:46 PM50 °FMostly cloudy.No wind100%30.11 "Hg10 mi
8:45 PM50 °FMostly cloudy.No wind100%30.10 "Hg10 mi
7:48 PM52 °FMostly cloudy.7 mph100%30.09 "Hg10 mi
6:47 PM52 °FMostly cloudy.7 mph100%30.07 "Hg10 mi
5:45 PM50 °FPassing clouds.7 mph100%30.06 "Hg10 mi
4:45 PM54 °FOvercast.7 mph100%30.05 "Hg10 mi
2:58 PM54 °FPartly sunny.9 mph100%30.03 "Hg10 mi
1:50 PM55 °FOvercast.9 mph100%30.04 "Hg10 mi
12:55 PM54 °FOvercast.13 mph100%30.05 "Hg10 mi
11:45 AM54 °FMore clouds than sun.9 mph100%30.06 "Hg10 mi
10:50 AM52 °FMore clouds than sun.10 mph100%30.07 "Hg10 mi
9:55 AM50 °FMostly cloudy.10 mph100%30.07 "Hg10 mi
8:45 AM50 °FOvercast.7 mph100%30.03 "Hg10 mi
7:45 AM48 °FMore clouds than sun.9 mph100%30.01 "Hg10 mi
6:45 AM48 °FPartly cloudy.9 mph100%30.00 "Hg10 mi
5:46 AM48 °FPassing clouds.8 mph100%29.98 "Hg10 mi
4:46 AM48 °FPartly cloudy.8 mph100%29.97 "Hg10 mi
Weather by CustomWeather, © 2014

See weather overviewHow to use our weather pages